Theta_e
307 307 308 309 311 311 312 313 313 314 314 314 314 313 313 313 312 311 310 309 309 309 310 311 313 314 314 315 316 316 318 318 317 315 314 314 319 320 316 315 315 312 313 315 316 317 315
307 307 309 310 312 312 313 313 314 314 314 313 313 313 313 312 311 310 309 309 309 309 311 313 314 315 315 318 319 317 318 318 318 319 319 319 319 319 318 316 314 315 314 314 315 317 317
307 308 309 311 312 313 313 314 314 314 313 312 312 313 313 312 310 309 309 309 310 311 313 314 315 315 315 317 318 317 317 317 317 318 319 319 319 319 319 316 316 315 312 313 314 317 317
307 309 310 312 313 313 313 314 315 314 314 313 312 312 312 311 310 309 309 310 312 313 314 315 315 315 314 318 318 317 317 317 317 319 319 318 319 319 318 317 317 315 313 313 315 316 318
308 309 311 313 314 313 314 314 315 316 316 314 312 312 312 311 310 310 311 312 313 314 315 316 315 315 315 320 317 317 316 318 318 318 317 318 319 318 318 312 312 312 313 315 317 316 316
308 310 312 313 314 313 314 315 316 316 316 315 312 311 312 310 310 311 312 313 314 316 316 315 320 318 316 318 316 316 316 318 319 319 319 319 319 314 313 312 313 314 316 314 315 316 317
309 311 313 314 313 313 314 315 316 316 316 315 313 311 311 311 312 312 313 315 317 317 317 315 317 320 319 317 317 316 315 318 320 320 318 319 316 315 317 316 316 316 316 315 316 316 316
309 312 313 314 313 313 314 315 316 317 316 315 313 312 311 312 313 313 316 322 326 324 319 317 319 319 319 318 317 317 317 319 319 318 318 315 316 317 317 319 319 318 319 318 317 317 315
310 313 314 314 313 313 314 316 316 316 317 316 313 312 312 313 313 314 318 324 323 319 320 318 318 318 319 319 318 318 320 320 319 318 317 316 318 318 319 318 319 319 318 319 319 318 313
311 313 314 314 313 313 314 315 316 316 318 318 313 312 313 313 314 315 317 325 321 321 312 315 317 317 319 319 318 319 318 319 319 317 317 318 319 320 319 319 319 322 320 319 319 317 314
312 313 314 313 313 313 314 315 315 316 318 319 315 314 314 316 325 324 325 324 317 322 313 315 318 318 319 319 319 318 318 322 320 317 318 319 319 319 319 319 319 321 320 320 320 318 318
312 313 313 313 313 313 314 315 315 316 317 318 318 316 316 318 326 323 322 316 317 318 317 318 318 318 317 319 319 319 319 321 321 318 317 318 319 319 319 319 319 319 321 319 319 318 319
312 312 312 313 313 313 313 314 315 315 315 317 317 318 322 322 326 321 317 316 318 316 320 317 318 319 319 319 320 320 318 317 318 319 319 319 319 318 319 320 318 317 320 323 321 318 319
311 311 311 313 313 313 313 314 315 315 315 317 316 318 324 321 324 320 316 318 323 321 319 317 318 319 320 320 319 320 319 317 316 320 319 320 320 318 317 318 319 319 318 318 323 318 321
309 310 311 312 313 313 313 313 314 315 315 315 316 317 318 317 317 317 321 318 322 321 318 319 319 320 320 321 320 318 317 317 317 317 320 320 320 318 317 317 319 320 315 316 317 314 316
308 309 311 312 313 313 314 314 313 314 315 315 315 316 316 316 316 316 320 321 324 320 320 318 319 320 320 320 321 320 320 319 320 316 316 318 319 317 317 319 318 315 316 319 313 317 316
308 309 310 311 312 313 315 314 313 313 315 315 315 315 316 314 316 315 318 322 322 320 322 319 320 319 320 319 319 320 320 319 319 319 315 319 316 317 319 318 318 318 318 317 315 312 314
308 309 309 310 312 314 315 315 314 313 314 315 319 317 321 320 312 317 320 324 320 319 321 321 322 322 320 321 323 322 322 320 320 320 316 316 313 312 318 317 317 317 318 315 311 319 310
308 309 308 309 311 314 316 316 315 313 314 318 322 325 324 318 308 306 321 322 320 319 320 321 321 321 321 321 322 322 321 319 316 316 319 316 313 313 318 319 316 317 317 318 313 307 313
308 308 308 309 311 313 316 317 314 313 315 319 323 315 320 320 322 320 322 321 321 321 321 321 321 321 321 321 320 322 321 319 315 314 316 318 316 313 316 317 313 315 315 317 314 310 312
309 308 307 308 310 312 316 318 315 313 315 321 324 316 315 309 314 322 322 321 321 321 321 321 320 321 320 321 322 321 320 319 317 316 317 315 315 315 314 314 315 315 314 313 314 313 313
309 308 308 307 309 311 315 318 315 313 315 319 322 322 315 313 314 320 319 321 321 321 320 321 320 321 319 317 319 320 318 317 318 317 318 313 312 312 315 315 314 314 312 313 313 313 313
309 309 308 307 308 309 312 317 317 314 315 319 322 323 316 320 314 317 316 320 321 320 320 320 319 317 316 319 318 319 319 319 318 317 313 310 306 307 311 309 310 309 313 316 315 314 314
309 309 309 308 307 308 311 315 317 316 314 321 323 324 323 312 313 316 322 321 319 319 320 319 320 317 319 318 318 318 317 318 317 313 311 308 309 302 304 302 306 315 313 313 316 315 312
309 310 309 308 307 308 310 314 316 317 318 322 321 325 322 307 318 321 320 320 320 320 319 320 319 319 317 313 306 309 306 308 309 314 315 309 301 305 303 306 306 311 314 313 313 316 313
309 309 309 308 307 307 309 314 315 316 319 318 317 324 321 320 317 323 319 319 314 315 314 321 318 321 318 306 304 309 307 310 313 317 310 308 301 304 307 302 302 307 314 315 313 312 313
309 309 309 308 308 307 308 311 314 314 314 314 320 321 322 322 323 321 319 319 320 317 312 320 321 320 318 299 305 311 312 312 313 311 307 304 300 304 303 299 305 306 311 314 311 309 313
309 309 309 308 308 307 308 309 314 315 316 316 317 320 322 322 322 322 321 321 320 319 312 320 316 317 308 304 301 308 308 308 309 311 309 308 306 303 301 302 309 310 313 310 310 314 315
309 309 308 308 308 308 307 308 311 315 319 316 319 321 320 320 321 321 321 321 320 319 318 319 314 317 316 307 307 310 307 308 302 310 311 311 308 308 309 309 309 312 314 314 314 315 314
Wind_Speed
19 18 16 15 15 14 15 15 18 19 18 19 18 17 14 12 12 11 12 12 11 11 12 9 4 4 5 6 10 6 3 2 7 12 14 14 11 10 6 5 6 7 5 10 13 12 9
20 17 16 14 14 14 14 15 16 15 16 16 15 14 12 10 11 10 11 12 11 11 10 6 4 5 6 5 3 6 5 4 7 8 8 12 12 9 12 11 7 9 16 10 9 7 5
19 17 15 14 13 12 13 13 12 11 12 11 11 11 9 9 10 11 12 12 12 11 8 4 4 6 9 13 5 2 6 9 6 6 7 8 1 7 2 7 22 23 6 4 3 5 3
19 18 15 14 13 10 12 10 8 8 9 8 9 8 8 9 11 12 12 13 12 9 4 3 4 5 8 4 6 4 4 3 0 4 4 5 1 2 7 10 5 5 6 3 4 6 2
19 18 15 14 12 10 9 7 6 6 6 6 6 6 9 11 12 14 14 13 8 4 3 2 3 5 9 6 6 3 2 5 3 3 3 4 3 5 6 4 5 7 3 3 3 11 3
19 18 16 14 12 10 8 5 5 4 4 4 3 6 11 14 15 15 13 9 5 3 4 5 2 2 9 5 6 9 6 3 3 2 6 6 7 4 5 5 3 5 4 5 7 6 4
21 19 16 14 12 9 6 5 4 2 2 2 5 9 13 16 16 15 12 8 3 2 9 7 3 6 5 9 6 9 6 3 1 0 1 7 6 3 3 4 4 3 3 7 3 5 5
23 20 17 14 14 9 7 6 5 3 4 5 8 11 15 18 15 13 11 2 5 4 6 14 10 11 8 4 4 10 6 1 0 2 3 6 2 3 4 5 6 3 7 5 5 7 7
24 21 18 16 14 9 9 9 7 6 6 8 11 13 16 14 11 10 9 6 5 4 3 1 2 4 2 2 4 5 1 2 3 2 3 6 5 2 5 6 7 5 7 3 3 2 9
26 22 19 17 14 10 11 11 10 8 8 10 14 14 13 11 6 6 6 4 3 4 4 4 2 2 1 4 3 2 0 1 5 8 6 5 7 5 5 4 1 2 3 4 3 3 6
27 23 21 18 14 12 13 13 12 10 10 11 13 14 13 11 3 2 3 4 3 3 4 4 1 6 2 1 6 1 3 2 0 3 6 4 4 6 5 0 1 3 2 2 2 3 3
27 25 22 19 15 13 14 15 14 13 12 12 12 12 10 6 1 3 4 3 2 6 2 3 5 4 2 0 2 5 2 4 4 6 6 4 3 3 1 3 1 1 1 6 4 3 3
29 26 22 19 17 14 15 17 16 15 14 13 11 12 9 5 3 2 4 3 5 5 2 4 4 4 4 2 2 4 5 6 4 5 3 5 4 5 5 4 6 8 5 3 4 4 4
30 26 22 20 17 14 15 18 19 17 17 15 12 13 9 5 3 4 5 5 2 3 4 3 5 4 4 3 5 3 3 4 6 4 3 3 4 4 6 2 1 3 5 5 4 2 2
29 25 23 20 17 14 16 18 21 20 19 17 14 12 8 6 3 4 1 3 6 5 4 6 5 5 2 2 6 6 4 2 2 1 5 4 1 2 0 2 1 3 4 4 6 4 3
29 26 23 19 16 14 15 18 22 22 21 19 16 12 10 8 4 3 4 5 3 2 3 5 6 5 4 5 4 4 2 3 3 7 2 2 4 2 3 5 6 6 2 4 4 2 1
29 26 23 19 16 14 15 18 22 23 23 21 17 9 11 12 6 1 3 5 2 6 8 4 2 4 6 7 5 3 3 3 5 5 7 2 4 4 4 3 1 5 3 5 4 3 4
29 26 22 19 16 14 14 18 23 24 26 24 17 3 16 13 3 0 2 4 2 3 5 5 4 4 4 4 5 3 3 3 9 3 2 2 5 3 1 3 1 2 3 4 4 2 2
29 25 21 18 16 14 14 18 22 26 30 26 16 5 14 16 3 2 5 4 3 2 2 2 2 4 3 4 6 3 4 4 9 4 2 2 2 3 6 4 6 4 2 5 6 3 3
28 25 21 18 16 14 14 18 23 29 32 24 9 2 4 8 4 5 3 1 2 6 3 5 4 6 5 5 6 4 3 3 5 4 3 2 3 5 6 4 3 1 2 4 5 4 4
27 23 20 18 16 14 14 17 22 29 32 20 5 4 10 3 4 4 3 3 3 2 2 5 4 3 5 4 3 4 3 2 4 2 3 3 4 2 2 4 1 1 2 1 4 4 5
26 23 20 18 16 14 14 15 20 27 30 17 3 4 10 10 16 5 5 6 9 3 3 1 2 4 7 5 6 7 7 3 4 1 3 5 2 1 1 5 6 3 5 5 4 4 4
26 23 20 18 16 14 13 14 18 24 27 11 7 6 11 1 6 4 4 6 8 9 2 3 15 7 10 2 15 18 12 11 8 5 3 4 4 3 3 5 6 5 5 3 2 4 3
25 23 20 17 16 14 14 13 15 21 25 12 8 3 5 2 4 6 3 5 6 2 8 7 13 7 11 22 23 22 26 23 21 14 5 5 4 3 2 4 1 5 5 4 9 3 11
25 22 19 17 15 14 14 14 14 20 19 15 7 2 4 1 1 1 8 13 20 22 9 8 4 12 22 7 5 5 5 7 5 7 7 5 4 3 3 3 5 6 5 6 5 3 4
25 21 19 17 15 14 14 14 15 16 16 11 8 7 4 9 4 3 10 18 6 4 5 7 17 10 5 6 4 4 4 4 2 1 7 6 6 4 3 4 6 6 2 9 8 4 17
25 21 18 17 15 14 14 14 13 13 13 12 11 10 6 6 4 13 7 8 12 7 4 3 4 4 4 3 3 3 3 4 5 6 4 3 3 5 3 2 8 7 10 4 5 7 24
24 21 18 16 15 14 14 14 13 12 12 13 12 10 7 6 7 7 14 15 16 12 5 10 5 2 4 4 3 4 3 5 3 4 6 7 6 4 3 2 7 13 6 7 6 11 21
23 20 18 16 14 14 13 13 13 13 13 14 14 10 8 5 9 14 14 15 12 12 16 17 7 6 8 4 1 3 1 1 3 3 3 2 7 5 9 7 6 18 11 15 13 14 18
Wind_Direction
239 245 252 257 268 275 282 289 293 293 292 288 286 279 270 260 247 235 221 216 212 214 212 214 219 251 251 261 257 157 45 264 229 229 240 235 219 209 212 179 144 139 140 97 98 104 127
242 246 248 254 262 273 283 290 293 293 292 288 281 271 259 246 235 218 209 206 204 198 199 202 235 225 237 263 11 242 330 324 301 259 266 250 240 285 258 184 161 158 123 130 127 117 112
240 245 245 248 259 270 281 289 291 294 292 289 277 259 240 227 215 201 199 192 186 184 192 218 230 231 247 246 341 54 251 301 304 3 345 25 38 303 298 87 132 137 92 49 169 182 161
238 239 239 247 254 264 278 283 285 289 293 291 273 251 221 202 193 190 186 176 173 180 194 229 233 239 255 297 290 308 274 319 313 18 344 20 33 29 78 96 90 92 59 125 252 169 214
232 233 235 242 248 257 270 268 271 285 292 286 264 229 200 182 181 176 170 166 167 172 196 195 201 229 270 279 246 156 265 3 45 34 39 79 22 49 63 67 25 17 188 216 311 206 124
223 224 228 237 243 251 252 244 260 280 283 256 224 201 185 169 168 160 156 154 154 162 164 152 176 254 257 234 181 182 209 335 10 357 340 29 38 53 34 69 199 241 229 212 183 214 223
214 218 220 226 237 240 227 219 237 235 223 162 165 174 162 156 154 156 155 144 155 181 199 197 193 235 277 172 210 218 207 249 313 182 45 5 59 143 219 184 202 222 239 168 147 178 112
210 213 212 217 228 225 206 202 194 162 153 134 139 150 148 153 155 158 156 95 49 356 283 249 263 260 272 140 157 168 195 302 343 214 80 27 134 233 326 30 41 93 77 0 23 21 90
206 205 207 210 220 208 198 192 171 161 144 143 138 146 151 152 159 169 181 9 3 340 242 350 226 196 100 20 141 133 221 330 241 47 141 144 207 320 92 39 61 37 104 71 135 32 57
202 200 200 207 209 199 194 185 170 163 144 143 145 151 151 144 151 207 251 338 358 312 72 290 358 190 351 141 66 137 25 18 25 138 112 94 357 88 87 69 98 68 154 146 129 86 157
198 194 199 200 199 195 191 184 174 166 149 141 148 155 152 142 101 199 300 293 261 246 72 247 204 151 193 60 146 105 67 48 98 169 95 241 67 69 71 31 84 205 8 63 75 106 88
192 193 195 193 195 193 191 186 178 170 160 147 149 152 149 148 150 214 291 272 230 47 201 200 142 161 82 12 177 139 102 49 71 75 54 90 99 73 268 306 238 284 40 37 49 66 42
189 190 191 187 192 190 193 188 182 175 171 158 150 142 134 154 163 193 308 274 41 119 187 158 169 157 160 159 160 74 70 42 61 78 35 42 1 325 27 37 13 41 56 17 18 13 210
187 186 187 186 188 189 193 190 185 178 182 168 154 142 142 132 181 214 283 49 156 208 200 188 132 116 133 124 1 47 64 42 359 46 114 130 354 359 327 87 254 357 117 146 167 175 257
182 183 184 183 186 189 191 190 188 180 186 172 168 160 158 162 157 226 301 67 209 213 175 140 97 111 115 89 127 85 62 121 34 13 134 133 132 294 27 322 118 318 52 165 105 352 69
179 181 180 180 184 187 187 189 187 181 185 172 173 170 189 197 203 212 71 232 239 325 17 98 148 153 158 194 116 101 125 338 338 22 164 178 106 316 344 25 11 103 173 42 9 93 62
177 178 176 177 181 182 181 185 182 179 180 169 170 160 191 204 208 153 162 241 271 47 60 81 183 184 176 188 134 71 38 7 21 334 44 73 94 286 41 28 349 6 30 60 105 108 149
174 174 170 175 177 175 174 180 176 175 173 166 165 117 179 186 129 16 203 215 300 47 21 39 90 61 100 108 63 80 122 32 351 348 50 39 115 96 169 271 307 138 119 103 108 244 76
172 169 168 174 171 166 168 174 172 173 171 165 160 126 174 182 146 283 282 283 124 106 325 74 67 66 95 117 98 76 90 27 34 53 83 25 22 65 354 347 348 96 116 108 101 84 197
169 167 168 170 165 160 163 169 171 173 173 169 160 94 135 188 197 160 233 224 100 53 38 80 110 70 74 64 37 121 99 33 30 70 42 64 80 146 177 196 185 142 58 140 118 116 187
165 164 168 162 161 155 159 167 174 177 176 173 176 197 168 210 261 198 167 178 129 102 60 83 23 128 141 107 73 105 91 90 22 16 53 81 113 40 68 39 37 240 120 94 187 199 163
163 165 165 158 156 153 155 163 175 179 179 189 156 166 171 180 185 189 158 201 175 188 127 257 149 59 93 125 169 189 137 157 183 89 61 8 143 359 103 14 18 325 309 263 231 216 231
164 168 161 154 153 151 148 157 170 179 183 191 223 258 185 60 115 98 219 175 198 140 65 114 131 95 75 65 113 102 103 120 136 126 97 59 119 72 254 12 354 356 226 221 110 7 224
166 167 159 153 151 148 144 149 163 171 185 188 206 200 153 268 123 184 198 95 112 122 134 132 126 101 141 108 97 84 77 73 69 47 101 120 92 73 199 27 33 249 308 160 108 87 109
168 164 159 153 150 147 143 143 154 166 181 179 205 155 118 136 215 135 87 115 91 89 67 76 59 140 141 119 62 44 354 21 2 36 32 90 113 92 129 191 296 314 178 163 165 205 180
166 164 161 156 152 146 145 146 152 165 171 177 173 167 137 125 263 82 122 138 133 108 25 77 119 120 132 77 75 132 191 197 211 116 56 56 76 108 147 137 218 235 215 131 93 288 185
166 166 164 160 153 148 148 152 154 161 166 171 165 154 143 111 51 139 147 162 132 107 109 130 128 93 86 72 92 153 225 176 173 176 195 48 10 149 143 214 287 241 237 145 103 238 178
167 168 166 164 159 155 152 152 155 156 155 160 157 171 167 115 69 135 149 146 145 147 136 160 81 8 54 73 126 192 174 221 116 191 179 166 149 194 110 91 281 193 140 166 200 170 184
168 170 169 171 166 162 159 153 152 152 152 153 141 142 135 121 110 114 128 156 177 171 137 164 153 155 162 93 146 133 200 112 157 218 131 216 189 182 182 211 243 189 208 215 234 207 192